Home > Weather > King's Lynn > Past weeks

Flag for United Kingdom Past Weather in King's Lynn, England, United Kingdom — Yesterday and Last 2 Weeks

Now
54 °F

Passing clouds.


Feels Like: 52 °F
Forecast: 61 / 69 °F
Wind: 6 mph from West

Location: Marham

Current Time: Jul 26, 2016 at 3:39:48 AM

Latest Report: Jul 26, 2016 at 2:50 AM


Visibility: N/A

Pressure: 30.12 "Hg

Humidity: 94%

Dew Point: 52 °F

Location of King's LynnLocation

Past Weather in King's Lynn — Graph

°F

King's Lynn Temperature Yesterday

Maximum temperature yesterday: 72 °F (at 2:50 PM)
Minimum temperature yesterday: 57 °F (at 4:50 AM)
Average temperature yesterday: 65 °F

High & Low Weather Summary for the Past Weeks

 TemperatureHumidityPressure
High86 °F (Jul 19, 1:50 PM)100% (Jul 16, 3:50 AM)30.27 "Hg (Jul 16, 3:50 AM)
Low48 °F (Jul 14, 3:50 AM)40% (Jul 19, 4:50 PM)29.59 "Hg (Jul 11, 4:50 AM)
Average66 °F73%30.04 "Hg
* Reported Jul 11 1:50 AM — Jul 26 1:50 AM, King's Lynn, Weather by CustomWeather, © 2016

Note: Actual official high and low records may vary slightly from our data, if they occured in-between our weather recording intervals... More about our weather records

Advertising

King's Lynn Weather History for the Previous 24 Hours

Scroll right to see more
 ConditionsComfort  
Time TempWeatherWind HumidityBarometerVisibility
1:50 AM
Tue, Jul 26
57 °FPassing clouds.5 mph88%30.12 "HgN/A
12:50 AM59 °FPassing clouds.6 mph82%30.12 "HgN/A
11:50 PM
Mon, Jul 25
61 °FClear.3 mph77%30.09 "Hg10 mi
10:50 PM63 °FPassing clouds.7 mph73%30.09 "HgN/A
9:50 PM64 °FSunny.7 mph68%30.09 "Hg10 mi
8:50 PM66 °FSunny.6 mph60%30.09 "Hg10 mi
7:50 PM68 °FSunny.7 mph56%30.07 "Hg10 mi
6:50 PM70 °FPassing clouds.9 mph53%30.07 "HgN/A
5:50 PM70 °FScattered clouds.14 mph57%30.07 "HgN/A
4:50 PM70 °FSunny.13 mph53%30.07 "Hg10 mi
3:50 PM72 °FSunny.12 mph53%30.07 "Hg10 mi
2:50 PM72 °FBroken clouds.13 mph50%30.07 "HgN/A
1:50 PM70 °FBroken clouds.13 mph53%30.07 "HgN/A
12:50 PM70 °FBroken clouds.14 mph50%30.07 "HgN/A
11:50 AM68 °FBroken clouds.10 mph60%30.07 "HgN/A
10:50 AM68 °FBroken clouds.7 mph64%30.07 "HgN/A
9:50 AM64 °FBroken clouds.10 mph73%30.07 "HgN/A
8:50 AM64 °FPartly sunny.10 mph78%30.04 "HgN/A
7:50 AM61 °FPartly sunny.10 mph83%30.04 "HgN/A
6:50 AM59 °FPartly sunny.10 mph88%30.04 "HgN/A
5:50 AM57 °FPassing clouds.9 mph94%30.04 "HgN/A
4:50 AM57 °FPassing clouds.7 mph88%30.01 "HgN/A
3:50 AM59 °FCool.10 mph88%30.01 "HgN/A
Weather by CustomWeather, © 2016

See weather overviewHow to use our weather pages